1493866800.07,24858,13.13,73608.0,0.41,-0.45,-0.41,0,*4F
1493866801.27,24859,13.13,73608.5,0.41,-0.41,-0.41,0,*4A
1493866802.47,24860,13.13,73610.0,0.41,-0.41,-0.41,0,*40
1493866803.68,24861,13.13,73610.8,0.41,-0.41,-0.41,0,*41
1493866804.88,24862,13.13,73604.3,0.41,-0.41,-0.41,0,*42
1493866806.08,24863,13.13,73610.3,0.41,-0.41,-0.33,0,*46
1493866807.28,24864,13.13,73606.3,0.41,-0.41,-0.41,0,*44
1493866808.48,24865,13.13,73602.0,0.41,-0.41,-0.33,0,*40
1493866809.68,24866,13.13,73602.8,0.41,-0.41,-0.41,0,*46
1493866810.88,24867,13.13,73602.5,0.41,-0.45,-0.33,0,*46
1493866812.05,24868,13.13,73606.0,0.39,-0.57,-0.45,0,*44
1493866813.25,24869,13.13,73602.0,0.41,-0.45,-0.41,0,*4D
1493866814.45,24870,13.13,73602.3,0.41,-0.41,-0.33,0,*44
1493866815.62,24871,13.13,73606.3,0.39,-0.37,-0.45,0,*4A
1493866816.82,24872,13.13,73604.8,0.41,-0.41,-0.41,0,*43
1493866818.03,24873,13.13,73604.3,0.41,-0.41,-0.41,0,*42
1493866819.22,24874,13.13,73606.0,0.41,-0.33,-0.33,0,*45
1493866820.41,24875,13.13,73608.5,0.41,-0.33,-0.33,0,*44
1493866821.61,24876,13.13,73604.3,0.41,-0.33,-0.41,0,*42
1493866822.8,24877,13.13,73608.5,0.41,-0.33,-0.41,0,*43
1493866823.98,24878,13.13,73604.5,0.43,-0.41,-0.33,0,*4E
1493866825.18,24879,13.13,73602.8,0.41,-0.41,-0.33,0,*4D
1493866826.37,24880,13.13,73604.0,0.41,-0.33,-0.33,0,*4E
1493866827.56,24881,13.13,73606.8,0.41,-0.33,-0.41,0,*4A
1493866828.74,24882,13.13,73600.0,0.39,-0.37,-0.45,0,*46
1493866829.93,24883,13.13,73602.3,0.41,-0.33,-0.33,0,*4D
1493866831.13,24884,13.13,73598.3,0.41,-0.33,-0.41,0,*4F
1493866832.3,24885,13.13,73602.0,0.39,-0.37,-0.45,0,*41
1493866833.47,24886,13.13,73602.0,0.39,-0.37,-0.37,0,*47
1493866834.67,24887,13.13,73608.8,0.41,-0.41,-0.33,0,*4C
1493866835.87,24888,13.13,73608.8,0.41,-0.33,-0.33,0,*46
1493866837.06,24889,13.13,73608.8,0.41,-0.33,-0.33,0,*47
1493866838.23,24890,13.13,73608.8,0.43,-0.33,-0.33,0,*4D
1493866839.42,24891,13.13,73614.0,0.41,-0.33,-0.33,0,*4E
1493866840.59,24892,13.13,73610.8,0.43,-0.33,-0.41,0,*4A
1493866841.79,24893,13.13,73610.5,0.41,-0.41,-0.41,0,*4C
1493866842.99,24894,13.13,73612.3,0.41,-0.41,-0.33,0,*4E
1493866844.18,24895,13.13,73616.5,0.41,-0.33,-0.33,0,*4A
1493866845.38,24896,13.13,73616.3,0.41,-0.33,-0.41,0,*4C
1493866846.55,24897,13.13,73612.3,0.43,-0.33,-0.33,0,*4A
1493866847.74,24898,13.13,73606.5,0.41,-0.33,-0.33,0,*47
1493866848.94,24899,13.13,73610.8,0.41,-0.41,-0.41,0,*46
1493866850.14,24900,13.13,73614.3,0.41,-0.33,-0.41,0,*42
1493866851.34,24901,13.13,73608.3,0.41,-0.41,-0.33,0,*43
1493866852.54,24902,13.13,73614.8,0.41,-0.41,-0.41,0,*45
1493866853.74,24903,13.13,73620.0,0.41,-0.45,-0.41,0,*40
1493866854.93,24904,13.13,73612.5,0.41,-0.33,-0.33,0,*43
1493866856.11,24905,13.13,73618.0,0.43,-0.41,-0.41,0,*40
1493866857.31,24906,13.13,73612.0,0.41,-0.41,-0.45,0,*45
1493866858.51,24907,13.13,73616.0,0.41,-0.41,-0.41,0,*40
1493866859.71,24908,13.13,73616.3,0.41,-0.41,-0.41,0,*4F
1493866860.91,24909,13.13,73618.5,0.41,-0.41,-0.41,0,*4E
1493866862.11,24910,13.13,73618.5,0.41,-0.53,-0.45,0,*41
1493866863.31,24911,13.13,73620.3,0.41,-0.45,-0.41,0,*43
1493866864.51,24912,13.13,73622.8,0.41,-0.45,-0.41,0,*40
1493866865.7,24913,13.13,73626.5,0.41,-0.45,-0.45,0,*45
1493866866.9,24914,13.13,73626.0,0.41,-0.53,-0.41,0,*41
1493866868.07,24915,13.13,73626.8,0.39,-0.45,-0.45,0,*4C
1493866869.24,24916,13.13,73626.0,0.39,-0.49,-0.49,0,*4F
1493866870.42,24917,13.13,73620.3,0.39,-0.49,-0.49,0,*4E
1493866871.62,24918,13.13,73620.3,0.41,-0.45,-0.41,0,*4A
1493866872.81,24919,13.13,73616.0,0.41,-0.45,-0.41,0,*4B
1493866874.01,24920,13.13,73616.8,0.41,-0.45,-0.41,0,*41
1493866875.21,24921,13.13,73616.5,0.41,-0.45,-0.45,0,*44
1493866876.4,24922,13.13,73614.5,0.41,-0.45,-0.45,0,*47
1493866877.57,24923,13.13,73614.0,0.43,-0.41,-0.45,0,*40
1493866878.77,24924,13.13,73612.0,0.41,-0.41,-0.41,0,*41
1493866879.94,24925,13.13,73614.0,0.43,-0.45,-0.45,0,*42
1493866881.14,24926,13.13,73614.0,0.41,-0.45,-0.41,0,*47
1493866882.33,24927,13.13,73614.8,0.41,-0.45,-0.45,0,*42
1493866883.5,24928,13.13,73616.8,0.39,-0.49,-0.45,0,*4E
1493866884.67,24929,13.13,73622.0,0.39,-0.49,-0.45,0,*4F
1493866885.85,24930,13.13,73618.5,0.39,-0.45,-0.49,0,*47
1493866887.04,24931,13.13,73616.0,0.41,-0.45,-0.45,0,*45
1493866888.24,24932,13.13,73614.0,0.41,-0.45,-0.41,0,*42
1493866889.44,24933,13.13,73616.5,0.41,-0.45,-0.41,0,*43
1493866890.63,24934,13.13,73618.5,0.41,-0.53,-0.45,0,*47
1493866891.82,24935,13.13,73616.3,0.41,-0.45,-0.53,0,*46
1493866893.02,24936,13.13,73616.5,0.41,-0.53,-0.41,0,*41
1493866894.22,24937,13.13,73618.0,0.41,-0.45,-0.41,0,*47
1493866895.42,24938,13.13,73618.5,0.41,-0.45,-0.41,0,*48
1493866896.62,24939,13.13,73620.5,0.41,-0.45,-0.41,0,*49
1493866897.82,24940,13.13,73622.5,0.41,-0.41,-0.41,0,*43
1493866898.99,24941,13.13,73622.3,0.39,-0.45,-0.45,0,*4D
1493866900.2,24942,13.13,73622.5,0.41,-0.53,-0.41,0,*42
1493866901.4,24943,13.13,73618.5,0.41,-0.41,-0.41,0,*40
1493866902.6,24944,13.13,73614.8,0.41,-0.41,-0.41,0,*47
1493866903.8,24945,13.13,73618.8,0.41,-0.45,-0.41,0,*42
1493866905.0,24946,13.13,73616.8,0.41,-0.41,-0.45,0,*41
1493866906.2,24947,13.13,73614.3,0.41,-0.41,-0.41,0,*44
1493866907.4,24948,13.13,73612.5,0.41,-0.41,-0.41,0,*4B
1493866908.6,24949,13.13,73614.8,0.41,-0.45,-0.41,0,*4E
1493866909.8,24950,13.13,73612.0,0.41,-0.45,-0.33,0,*43
1493866911.0,24951,13.13,73612.3,0.41,-0.41,-0.41,0,*43
1493866912.17,24952,13.13,73608.3,0.39,-0.37,-0.37,0,*4F
1493866913.35,24953,13.13,73608.3,0.39,-0.37,-0.45,0,*4B
1493866914.52,24954,13.13,73604.0,0.39,-0.37,-0.37,0,*49
1493866915.73,24955,13.13,73606.0,0.41,-0.41,-0.41,0,*47
1493866916.93,24956,13.13,73608.5,0.41,-0.41,-0.41,0,*44
1493866918.13,24957,13.13,73612.5,0.41,-0.41,-0.33,0,*40
1493866919.33,24958,13.13,73606.3,0.41,-0.41,-0.41,0,*4A
1493866920.53,24959,13.13,73606.8,0.41,-0.41,-0.41,0,*4B
1493866921.74,24960,13.13,73610.3,0.41,-0.41,-0.41,0,*41
1493866922.94,24961,13.13,73608.0,0.41,-0.41,-0.41,0,*40
1493866924.13,24962,13.13,73610.5,0.41,-0.45,-0.33,0,*42
1493866925.33,24963,13.13,73610.0,0.41,-0.41,-0.33,0,*47
1493866926.54,24964,13.13,73608.3,0.41,-0.41,-0.41,0,*45
1493866927.71,24965,13.13,73610.5,0.39,-0.37,-0.45,0,*4E
1493866928.89,24966,13.13,73610.3,0.39,-0.45,-0.37,0,*4D
1493866930.06,24967,13.13,73608.5,0.39,-0.45,-0.45,0,*49
1493866931.23,24968,13.13,73606.3,0.39,-0.37,-0.45,0,*43
1493866932.4,24969,13.13,73604.0,0.39,-0.45,-0.45,0,*47
1493866933.58,24970,13.13,73606.3,0.39,-0.45,-0.37,0,*4A
1493866934.75,24971,13.13,73610.0,0.39,-0.37,-0.45,0,*4B
1493866935.92,24972,13.13,73612.3,0.39,-0.45,-0.45,0,*4D
1493866937.1,24973,13.13,73608.8,0.39,-0.45,-0.37,0,*49
1493866938.27,24974,13.13,73606.0,0.39,-0.49,-0.45,0,*47
1493866939.44,24975,13.13,73600.0,0.39,-0.49,-0.37,0,*43
1493866940.62,24976,13.13,73606.0,0.39,-0.45,-0.45,0,*49
1493866941.82,24977,13.13,73604.0,0.41,-0.41,-0.41,0,*47
1493866943.01,24978,13.13,73602.8,0.41,-0.45,-0.33,0,*49
1493866944.21,24979,13.13,73604.3,0.41,-0.45,-0.41,0,*4D
1493866945.41,24980,13.13,73602.8,0.41,-0.45,-0.41,0,*4B
1493866946.61,24981,13.13,73602.8,0.41,-0.45,-0.33,0,*4F
1493866947.81,24982,13.13,73602.3,0.41,-0.45,-0.41,0,*49
1493866949.0,24983,13.13,73596.5,0.41,-0.45,-0.37,0,*49
1493866950.18,24984,13.13,73596.8,0.39,-0.45,-0.49,0,*48
1493866951.35,24985,13.13,73600.0,0.39,-0.49,-0.49,0,*45
1493866952.52,24986,13.13,73596.5,0.39,-0.49,-0.49,0,*46
1493866953.69,24987,13.13,73600.0,0.39,-0.49,-0.45,0,*4B
1493866954.87,24988,13.13,73602.5,0.39,-0.49,-0.49,0,*48
1493866956.04,24989,13.13,73606.5,0.39,-0.57,-0.45,0,*4A
1493866957.21,24990,13.13,73608.0,0.39,-0.45,-0.45,0,*41
1493866958.39,24991,13.13,73604.5,0.39,-0.45,-0.45,0,*40
1493866959.56,24992,13.13,73610.5,0.39,-0.45,-0.45,0,*43
1493866960.76,24993,13.13,73614.5,0.41,-0.41,-0.33,0,*48
1493866961.95,24994,13.13,73604.0,0.41,-0.45,-0.41,0,*4E
1493866963.13,24995,13.13,73604.3,0.39,-0.49,-0.45,0,*48
1493866964.3,24996,13.13,73604.8,0.39,-0.37,-0.45,0,*42
1493866965.49,24997,13.13,73608.3,0.37,-0.49,-0.49,0,*48
1493866966.67,24998,13.13,73604.8,0.39,-0.37,-0.37,0,*49
1493866967.84,24999,13.13,73604.0,0.39,-0.37,-0.45,0,*4D
1493866969.02,25000,13.13,73598.8,0.39,-0.45,-0.37,0,*45
1493866970.2,25001,13.13,73602.8,0.39,-0.37,-0.37,0,*41
1493866971.39,25002,13.13,73602.3,0.41,-0.33,-0.33,0,*4D
1493866972.58,25003,13.13,73606.0,0.41,-0.33,-0.33,0,*4C
1493866973.75,25004,13.13,73606.5,0.39,-0.45,-0.37,0,*41
1493866974.93,25005,13.13,73610.3,0.39,-0.37,-0.37,0,*45
1493866976.11,25006,13.13,73610.0,0.39,-0.37,-0.37,0,*46
1493866977.28,25007,13.13,73602.3,0.39,-0.45,-0.37,0,*42
1493866978.46,25008,13.13,73606.8,0.39,-0.37,-0.37,0,*48
1493866979.67,25009,13.13,73606.3,0.37,-0.41,-0.41,0,*47
1493866980.84,25010,13.13,73604.8,0.39,-0.37,-0.37,0,*41
1493866982.02,25011,13.13,73608.3,0.39,-0.37,-0.37,0,*40
1493866983.19,25012,13.13,73610.3,0.39,-0.37,-0.37,0,*43
1493866984.37,25013,13.13,73608.8,0.39,-0.45,-0.37,0,*47
1493866985.55,25014,13.13,73610.0,0.39,-0.45,-0.37,0,*40
1493866986.72,25015,13.13,73612.3,0.39,-0.37,-0.37,0,*44
1493866987.9,25016,13.13,73616.8,0.39,-0.37,-0.37,0,*47
1493866989.07,25017,13.13,73614.8,0.39,-0.45,-0.45,0,*46
1493866990.24,25018,13.13,73610.0,0.39,-0.45,-0.45,0,*49
1493866991.42,25019,13.13,73612.3,0.39,-0.37,-0.37,0,*48
1493866992.59,25020,13.13,73618.5,0.39,-0.37,-0.45,0,*47
1493866993.8,25021,13.13,73622.0,0.41,-0.41,-0.41,0,*4C
1493866994.97,25022,13.13,73626.8,0.39,-0.37,-0.49,0,*49
1493866996.15,25023,13.13,73624.3,0.39,-0.37,-0.37,0,*41
1493866997.32,25024,13.13,73626.0,0.39,-0.45,-0.45,0,*46
1493866998.49,25025,13.13,73628.5,0.39,-0.45,-0.45,0,*47
1493866999.69,25026,13.13,73630.8,0.41,-0.33,-0.41,0,*4E
1493867000.86,25027,13.13,73630.3,0.39,-0.37,-0.45,0,*40
1493867002.04,25028,13.13,73620.8,0.39,-0.45,-0.37,0,*4F
1493867003.21,25029,13.13,73622.5,0.39,-0.45,-0.45,0,*4B
1493867004.39,25030,13.13,73618.3,0.39,-0.45,-0.37,0,*46
1493867005.56,25031,13.13,73618.5,0.39,-0.45,-0.37,0,*47
1493867006.74,25032,13.13,73620.3,0.39,-0.37,-0.37,0,*41
1493867007.91,25033,13.13,73620.5,0.39,-0.37,-0.45,0,*45
1493867009.09,25034,13.13,73620.0,0.39,-0.37,-0.37,0,*47
1493867010.26,25035,13.13,73620.0,0.39,-0.45,-0.37,0,*43
1493867011.44,25036,13.13,73622.5,0.39,-0.45,-0.37,0,*40
1493867012.61,25037,13.13,73624.3,0.39,-0.37,-0.37,0,*44
1493867013.79,25038,13.13,73620.5,0.39,-0.45,-0.37,0,*4E
1493867014.97,25039,13.13,73624.3,0.39,-0.37,-0.37,0,*4A
1493867016.16,25040,13.13,73628.0,0.37,-0.49,-0.37,0,*43
1493867017.33,25041,13.13,73628.3,0.39,-0.45,-0.45,0,*45
1493867018.51,25042,13.13,73626.8,0.39,-0.45,-0.37,0,*43
1493867019.69,25043,13.13,73628.3,0.39,-0.45,-0.37,0,*42
1493867020.86,25044,13.13,73622.0,0.39,-0.37,-0.37,0,*40
1493867022.06,25045,13.13,73616.0,0.41,-0.33,-0.41,0,*4B
1493867023.24,25046,13.13,73618.8,0.39,-0.41,-0.33,0,*47
1493867024.41,25047,13.13,73612.3,0.39,-0.37,-0.37,0,*43
1493867025.59,25048,13.13,73614.8,0.39,-0.45,-0.45,0,*4C
1493867026.76,25049,13.13,73616.5,0.39,-0.45,-0.37,0,*48
1493867027.93,25050,13.13,73616.3,0.39,-0.45,-0.45,0,*45
1493867029.11,25051,13.13,73618.5,0.39,-0.45,-0.45,0,*44
1493867030.28,25052,13.13,73618.0,0.39,-0.49,-0.45,0,*4B
1493867031.45,25053,13.13,73618.8,0.39,-0.45,-0.37,0,*43
1493867032.63,25054,13.13,73618.3,0.39,-0.49,-0.37,0,*48
1493867033.82,25055,13.13,73618.5,0.41,-0.45,-0.33,0,*4E
1493867035.02,25056,13.13,73624.5,0.41,-0.41,-0.41,0,*4C
1493867036.22,25057,13.13,73620.8,0.41,-0.53,-0.41,0,*4E
1493867037.42,25058,13.13,73624.5,0.41,-0.45,-0.45,0,*42
1493867038.61,25059,13.13,73624.0,0.41,-0.53,-0.45,0,*44
1493867039.8,25060,13.13,73628.0,0.41,-0.53,-0.45,0,*4E
1493867040.97,25061,13.13,73628.3,0.39,-0.57,-0.57,0,*47
1493867042.14,25062,13.13,73620.5,0.39,-0.49,-0.57,0,*4B
1493867043.34,25063,13.13,73622.3,0.37,-0.53,-0.53,0,*4B
1493867044.51,25064,13.13,73624.8,0.39,-0.57,-0.57,0,*42
1493867045.68,25065,13.13,73626.3,0.39,-0.57,-0.57,0,*43
1493867046.88,25066,13.13,73626.5,0.41,-0.57,-0.53,0,*4B
1493867048.07,25067,13.13,73622.0,0.41,-0.53,-0.53,0,*4E
1493867049.24,25068,13.13,73614.3,0.39,-0.57,-0.57,0,*4E
1493867050.41,25069,13.13,73618.0,0.39,-0.61,-0.57,0,*4A
1493867051.58,25070,13.13,73620.0,0.39,-0.57,-0.57,0,*47
1493867052.78,25071,13.13,73618.0,0.37,-0.65,-0.57,0,*49
1493867053.95,25072,13.13,73616.0,0.39,-0.57,-0.57,0,*45
1493867055.13,25073,13.13,73620.0,0.37,-0.61,-0.61,0,*4A
1493867056.32,25074,13.13,73622.3,0.37,-0.61,-0.61,0,*4D
1493867057.51,25075,13.13,73628.5,0.37,-0.61,-0.73,0,*4F
1493867058.68,25076,13.13,73624.8,0.39,-0.61,-0.49,0,*4B
1493867059.84,25077,13.13,73622.5,0.39,-0.61,-0.61,0,*40
1493867061.01,25078,13.13,73620.5,0.39,-0.61,-0.61,0,*4F
1493867062.18,25079,13.13,73616.5,0.39,-0.69,-0.57,0,*43
1493867063.35,25080,13.13,73616.8,0.39,-0.61,-0.57,0,*4D
1493867064.51,25081,13.13,73618.3,0.39,-0.61,-0.69,0,*41
1493867065.7,25082,13.13,73616.8,0.37,-0.65,-0.65,0,*44
1493867066.9,25083,13.13,73622.0,0.37,-0.65,-0.65,0,*45
1493867068.06,25084,13.13,73616.3,0.39,-0.61,-0.61,0,*4C
1493867069.25,25085,13.13,73618.5,0.37,-0.65,-0.61,0,*47
1493867070.44,25086,13.13,73622.3,0.37,-0.61,-0.65,0,*44
1493867071.62,25087,13.13,73620.0,0.37,-0.61,-0.61,0,*41
1493867072.79,25088,13.13,73622.0,0.39,-0.57,-0.57,0,*40
1493867073.98,25089,13.13,73620.5,0.37,-0.65,-0.61,0,*4B
1493867075.18,25090,13.13,73624.0,0.37,-0.65,-0.61,0,*43
1493867076.36,25091,13.13,73616.0,0.37,-0.61,-0.61,0,*46
1493867077.53,25092,13.13,73612.8,0.39,-0.61,-0.57,0,*4E
1493867078.69,25093,13.13,73608.3,0.39,-0.61,-0.57,0,*4F
1493867079.88,25094,13.13,73608.0,0.37,-0.61,-0.61,0,*43
1493867081.07,25095,13.13,73600.8,0.37,-0.61,-0.53,0,*43
1493867082.24,25096,13.13,73602.0,0.39,-0.69,-0.57,0,*42
1493867083.41,25097,13.13,73598.5,0.39,-0.61,-0.57,0,*4B
1493867084.57,25098,13.13,73598.3,0.39,-0.61,-0.61,0,*41
1493867085.76,25099,13.13,73598.5,0.37,-0.65,-0.65,0,*4E
1493867086.95,25100,13.06,73596.8,0.37,-0.65,-0.61,0,*4B
1493867088.12,25101,13.13,73598.5,0.39,-0.61,-0.69,0,*48
1493867089.31,25102,13.13,73598.5,0.37,-0.65,-0.65,0,*4D
1493867090.47,25103,13.13,73600.0,0.39,-0.61,-0.61,0,*42
1493867091.64,25104,13.13,73600.0,0.39,-0.61,-0.57,0,*40
1493867092.83,25105,13.13,73602.3,0.37,-0.65,-0.61,0,*4E
1493867094.02,25106,13.13,73600.5,0.37,-0.65,-0.61,0,*4D
1493867095.22,25107,13.13,73600.0,0.37,-0.73,-0.65,0,*4F
1493867096.41,25108,13.13,73596.0,0.37,-0.61,-0.73,0,*44
1493867097.57,25109,13.13,73598.0,0.39,-0.61,-0.61,0,*48
1493867098.77,25110,13.13,73592.8,0.37,-0.73,-0.65,0,*49
1493867099.96,25111,13.13,73600.3,0.37,-0.65,-0.65,0,*4F
1493867101.15,25112,13.13,73596.3,0.37,-0.65,-0.65,0,*4C
1493867102.35,25113,13.13,73598.5,0.37,-0.65,-0.73,0,*4A
1493867103.52,25114,13.13,73602.8,0.35,-0.61,-0.65,0,*4C
1493867104.71,25115,13.13,73596.8,0.37,-0.65,-0.65,0,*4B
1493867105.9,25116,13.13,73596.8,0.37,-0.65,-0.65,0,*48
1493867107.09,25117,13.13,73606.8,0.37,-0.65,-0.61,0,*4D
1493867108.29,25118,13.13,73596.8,0.37,-0.65,-0.53,0,*43
1493867109.48,25119,13.13,73598.0,0.37,-0.65,-0.61,0,*43
1493867110.65,25120,13.13,73606.0,0.35,-0.61,-0.65,0,*4B
1493867111.84,25121,13.13,73608.8,0.33,-0.69,-0.69,0,*48
1493867113.01,25122,13.13,73610.8,0.35,-0.65,-0.65,0,*4D
1493867114.21,25123,13.13,73610.8,0.33,-0.69,-0.69,0,*4A
1493867115.38,25124,13.13,73604.3,0.35,-0.65,-0.65,0,*4B
1493867116.56,25125,13.13,73600.8,0.35,-0.65,-0.73,0,*4D
1493867117.73,25126,13.13,73596.3,0.35,-0.65,-0.65,0,*49
1493867118.91,25127,13.13,73596.0,0.35,-0.73,-0.65,0,*4F
1493867120.08,25128,13.13,73602.0,0.35,-0.65,-0.65,0,*47
1493867121.25,25129,13.13,73602.3,0.35,-0.65,-0.65,0,*46
1493867122.42,25130,13.13,73600.0,0.35,-0.65,-0.65,0,*4E
1493867123.6,25131,13.13,73602.8,0.35,-0.65,-0.53,0,*4A
1493867124.78,25132,13.13,73604.0,0.35,-0.65,-0.73,0,*4B
1493867125.94,25133,13.13,73604.8,0.35,-0.61,-0.53,0,*4C
1493867127.14,25134,13.13,73606.0,0.33,-0.65,-0.65,0,*4C
1493867128.3,25135,13.13,73608.8,0.35,-0.61,-0.61,0,*4B
1493867129.49,25136,13.13,73606.8,0.33,-0.65,-0.65,0,*4E
1493867130.67,25137,13.13,73608.5,0.35,-0.53,-0.53,0,*49
1493867131.84,25138,13.13,73610.0,0.35,-0.65,-0.57,0,*47
1493867133.01,25139,13.13,73602.0,0.35,-0.61,-0.53,0,*46
1493867134.18,25140,13.13,73604.5,0.35,-0.61,-0.53,0,*48
1493867135.35,25141,13.13,73604.0,0.35,-0.53,-0.61,0,*49
1493867136.54,25142,13.13,73608.5,0.33,-0.65,-0.65,0,*4D
1493867137.74,25143,13.13,73610.5,0.33,-0.65,-0.57,0,*4D
1493867138.93,25144,13.13,73604.3,0.33,-0.65,-0.57,0,*4A
1493867140.13,25145,13.13,73608.5,0.33,-0.65,-0.57,0,*4B
1493867141.31,25146,13.13,73608.0,0.35,-0.53,-0.53,0,*4F
1493867142.5,25147,13.13,73604.8,0.33,-0.57,-0.57,0,*48
1493867143.7,25148,13.13,73602.0,0.33,-0.57,-0.57,0,*47
1493867144.88,25149,13.13,73600.5,0.35,-0.53,-0.49,0,*4B
1493867146.07,25150,13.13,73602.0,0.33,-0.57,-0.53,0,*4A
1493867147.25,25151,13.13,73602.8,0.35,-0.61,-0.49,0,*43
1493867148.42,25152,13.13,73602.0,0.35,-0.53,-0.49,0,*41
1493867149.62,25153,13.13,73602.0,0.33,-0.57,-0.53,0,*49
1493867150.81,25154,13.13,73598.8,0.33,-0.57,-0.65,0,*4B
1493867152.01,25155,13.13,73598.8,0.33,-0.57,-0.57,0,*4B
1493867153.19,25156,13.13,73598.3,0.35,-0.53,-0.49,0,*45
1493867154.38,25157,13.13,73596.5,0.33,-0.57,-0.65,0,*48
1493867155.58,25158,13.13,73598.0,0.33,-0.57,-0.57,0,*46
1493867156.77,25159,13.13,73594.3,0.33,-0.65,-0.57,0,*46
1493867157.97,25160,13.13,73598.5,0.33,-0.57,-0.53,0,*49
1493867159.16,25161,13.13,73598.3,0.33,-0.57,-0.53,0,*48
1493867160.36,25162,13.13,73596.8,0.33,-0.57,-0.53,0,*4B
1493867161.54,25163,13.13,73600.8,0.35,-0.53,-0.57,0,*4C
1493867162.71,25164,13.13,73600.5,0.35,-0.65,-0.53,0,*4A
1493867163.89,25165,13.13,73602.3,0.35,-0.57,-0.57,0,*4E
1493867165.06,25166,13.13,73600.3,0.35,-0.57,-0.57,0,*4D
1493867166.26,25167,13.13,73598.8,0.33,-0.57,-0.57,0,*4A
1493867167.45,25168,13.13,73604.5,0.33,-0.57,-0.57,0,*45
1493867168.65,25169,13.13,73602.3,0.33,-0.57,-0.57,0,*44
1493867169.85,25170,13.13,73608.3,0.33,-0.57,-0.57,0,*4C
1493867171.04,25171,13.13,73610.3,0.33,-0.57,-0.57,0,*4D
1493867172.22,25172,13.13,73606.0,0.35,-0.53,-0.49,0,*43
1493867173.42,25173,13.13,73600.0,0.33,-0.53,-0.57,0,*4B
1493867174.61,25174,13.13,73600.0,0.33,-0.53,-0.53,0,*48
1493867175.81,25175,13.13,73604.3,0.33,-0.53,-0.53,0,*49
1493867177.0,25176,13.13,73608.3,0.33,-0.53,-0.53,0,*4A
1493867178.2,25177,13.13,73604.0,0.33,-0.53,-0.57,0,*4F
1493867179.39,25178,13.13,73600.5,0.33,-0.57,-0.57,0,*44
1493867180.59,25179,13.13,73600.8,0.33,-0.53,-0.53,0,*45
1493867181.76,25180,13.13,73602.3,0.35,-0.49,-0.53,0,*4E
1493867182.96,25181,13.13,73606.3,0.33,-0.53,-0.53,0,*42
1493867184.15,25182,13.13,73606.3,0.33,-0.45,-0.45,0,*41
1493867185.35,25183,13.13,73606.8,0.33,-0.57,-0.53,0,*44
1493867186.54,25184,13.13,73600.3,0.33,-0.45,-0.45,0,*47
1493867187.74,25185,13.13,73600.3,0.33,-0.45,-0.53,0,*41
1493867188.93,25186,13.13,73604.5,0.33,-0.53,-0.45,0,*42
1493867190.13,25187,13.13,73602.0,0.33,-0.45,-0.45,0,*44
1493867191.33,25188,13.13,73604.0,0.33,-0.45,-0.45,0,*4B
1493867192.52,25189,13.13,73602.3,0.33,-0.53,-0.53,0,*4A
1493867193.69,25190,13.13,73600.8,0.31,-0.45,-0.45,0,*40
1493867194.87,25191,13.13,73604.8,0.35,-0.45,-0.45,0,*45
1493867196.07,25192,13.13,73598.8,0.33,-0.53,-0.45,0,*47
1493867197.26,25193,13.13,73600.8,0.33,-0.53,-0.45,0,*46
1493867198.46,25194,13.13,73596.8,0.33,-0.45,-0.45,0,*46
1493867199.65,25195,13.13,73606.5,0.33,-0.45,-0.45,0,*47
1493867200.85,25196,13.13,73604.8,0.33,-0.45,-0.45,0,*44
1493867202.05,25197,13.13,73608.0,0.33,-0.45,-0.45,0,*45
1493867203.24,25198,13.13,73600.5,0.33,-0.45,-0.53,0,*4D
1493867204.44,25199,13.13,73602.5,0.33,-0.45,-0.45,0,*4B
1493867205.63,25200,13.13,73602.8,0.33,-0.45,-0.45,0,*48
1493867206.83,25201,13.13,73602.0,0.33,-0.45,-0.45,0,*49
1493867208.0,25202,13.13,73600.3,0.31,-0.45,-0.45,0,*48
1493867209.2,25203,13.13,73596.0,0.33,-0.53,-0.45,0,*4C
1493867210.39,25204,13.13,73592.8,0.33,-0.45,-0.45,0,*4C
1493867211.59,25205,13.13,73604.3,0.33,-0.53,-0.45,0,*4A
1493867212.78,25206,13.13,73606.0,0.33,-0.45,-0.53,0,*49
1493867213.98,25207,13.13,73606.8,0.33,-0.45,-0.45,0,*4F
1493867215.16,25208,13.13,73608.3,0.35,-0.41,-0.41,0,*46
1493867216.36,25209,13.13,73604.8,0.33,-0.45,-0.45,0,*41
1493867217.56,25210,13.13,73610.3,0.33,-0.45,-0.45,0,*49
1493867218.75,25211,13.13,73612.8,0.33,-0.45,-0.45,0,*48
1493867219.95,25212,13.13,73610.5,0.33,-0.45,-0.45,0,*4B
1493867221.14,25213,13.13,73612.8,0.33,-0.53,-0.53,0,*4A
1493867222.34,25214,13.13,73612.3,0.33,-0.53,-0.45,0,*4A
1493867223.54,25215,13.13,73612.5,0.33,-0.53,-0.45,0,*4B
1493867224.73,25216,13.13,73612.8,0.33,-0.45,-0.45,0,*4F
1493867225.93,25217,13.13,73614.8,0.33,-0.45,-0.45,0,*4E
1493867227.12,25218,13.13,73608.0,0.33,-0.45,-0.45,0,*41
1493867228.32,25219,13.13,73616.5,0.33,-0.45,-0.45,0,*40
1493867229.49,25220,13.13,73612.3,0.35,-0.49,-0.49,0,*4C
1493867230.69,25221,13.13,73608.3,0.33,-0.45,-0.45,0,*4B
1493867231.89,25222,13.13,73610.8,0.33,-0.45,-0.45,0,*48
1493867233.08,25223,13.13,73608.8,0.33,-0.45,-0.45,0,*49
1493867234.29,25224,13.13,73608.0,0.33,-0.41,-0.41,0,*4E
1493867235.48,25225,13.13,73608.3,0.33,-0.53,-0.45,0,*48
1493867236.68,25226,13.13,73606.5,0.33,-0.53,-0.53,0,*4C
1493867237.86,25227,13.13,73606.3,0.35,-0.49,-0.49,0,*4B
1493867239.05,25228,13.13,73610.8,0.33,-0.45,-0.45,0,*42
1493867240.23,25229,13.13,73604.3,0.35,-0.49,-0.41,0,*4D
1493867241.43,25230,13.13,73608.5,0.33,-0.45,-0.45,0,*4B
1493867242.61,25231,13.13,73604.3,0.35,-0.49,-0.41,0,*44
1493867243.8,25232,13.13,73606.5,0.33,-0.45,-0.45,0,*49
1493867245.0,25233,13.13,73616.0,0.33,-0.45,-0.45,0,*48
1493867246.18,25234,13.13,73614.5,0.35,-0.41,-0.49,0,*41
1493867247.36,25235,13.13,73614.3,0.35,-0.49,-0.49,0,*48
1493867248.55,25236,13.13,73614.0,0.33,-0.45,-0.45,0,*4D
1493867249.75,25237,13.13,73612.5,0.33,-0.53,-0.45,0,*4B
1493867250.94,25238,13.13,73610.8,0.33,-0.45,-0.53,0,*44
1493867252.12,25239,13.13,73612.5,0.35,-0.45,-0.45,0,*44
1493867253.31,25240,13.13,73614.5,0.33,-0.49,-0.49,0,*4C
1493867254.51,25241,13.13,73614.0,0.33,-0.53,-0.53,0,*4D
1493867255.7,25242,13.13,73624.3,0.33,-0.45,-0.53,0,*49
1493867256.89,25243,13.13,73624.3,0.35,-0.41,-0.49,0,*41
1493867258.08,25244,13.13,73620.3,0.33,-0.65,-0.57,0,*49
1493867259.28,25245,13.13,73616.8,0.33,-0.57,-0.53,0,*4D
1493867260.47,25246,13.13,73616.0,0.33,-0.57,-0.45,0,*49
1493867261.65,25247,13.13,73616.0,0.35,-0.53,-0.53,0,*4D
1493867262.82,25248,13.13,73610.8,0.35,-0.53,-0.53,0,*42
1493867264.02,25249,13.13,73614.0,0.33,-0.65,-0.57,0,*44
1493867265.22,25250,13.13,73612.3,0.33,-0.57,-0.57,0,*4D
1493867266.41,25251,13.13,73608.3,0.33,-0.57,-0.65,0,*4D
1493867267.58,25252,13.13,73608.3,0.35,-0.53,-0.53,0,*49
1493867268.78,25253,13.13,73608.5,0.33,-0.57,-0.57,0,*4E
1493867269.98,25254,13.13,73606.3,0.33,-0.57,-0.45,0,*4A
1493867271.17,25255,13.13,73604.8,0.33,-0.57,-0.53,0,*4C
1493867272.37,25256,13.13,73608.0,0.33,-0.53,-0.57,0,*4F
1493867273.56,25257,13.13,73606.8,0.33,-0.53,-0.57,0,*4E
1493867274.76,25258,13.13,73604.5,0.33,-0.53,-0.45,0,*42
1493867275.93,25259,13.13,73606.3,0.35,-0.41,-0.61,0,*40
1493867277.13,25260,13.13,73606.0,0.33,-0.57,-0.53,0,*4A
1493867278.33,25261,13.13,73602.3,0.33,-0.57,-0.45,0,*4C
1493867279.51,25262,13.13,73598.8,0.35,-0.53,-0.49,0,*41
1493867280.7,25263,13.13,73594.5,0.33,-0.57,-0.53,0,*49
1493867281.9,25264,13.13,73598.5,0.33,-0.45,-0.45,0,*4A
1493867283.09,25265,13.13,73600.0,0.33,-0.53,-0.53,0,*4B
1493867284.29,25266,13.13,73604.5,0.33,-0.53,-0.53,0,*48
1493867285.48,25267,13.13,73602.0,0.33,-0.49,-0.49,0,*49
1493867286.68,25268,13.13,73602.5,0.33,-0.53,-0.53,0,*46
1493867287.88,25269,13.13,73604.0,0.33,-0.57,-0.53,0,*43
1493867289.06,25270,13.13,73604.3,0.35,-0.53,-0.49,0,*42
1493867290.25,25271,13.13,73606.3,0.33,-0.57,-0.53,0,*4A
1493867291.45,25272,13.13,73600.5,0.33,-0.57,-0.53,0,*49
1493867292.63,25273,13.13,73602.8,0.35,-0.53,-0.49,0,*41
1493867293.82,25274,13.13,73606.8,0.33,-0.57,-0.53,0,*4F
1493867295.02,25275,13.13,73606.3,0.33,-0.65,-0.53,0,*4F
1493867296.21,25276,13.13,73596.5,0.33,-0.57,-0.53,0,*4D
1493867297.41,25277,13.13,73592.8,0.33,-0.57,-0.57,0,*48
1493867298.59,25278,13.13,73596.3,0.35,-0.53,-0.49,0,*4A